Weather Roundup
Issued by NWS Springfield, MO

Home | Current Version | Previous Version | Text Only | Print | Product List | Glossary On
Versions: 1 2 3 4 5 6 7 8 9 10 11 12 13 14 15 16 17 18 19 20 21 22 23 24 25 26 27 28 29 30 31 32 33 34 35 36 37 38 39 40 41 42 43 44 45 46 47 48 49 50
000
NZUS99 KSGF 011907
HRRSGF

HOURLY WEATHER
NATIONAL WEATHER SERVICE SPRINGFIELD MO
100 PM CST SUN FEB 01 2015

......SGF CWA......

CITY           SKY/WX    TMP DP  RH WIND       PRES   REMARKS
SPRINGFIELD    CLOUDY    37  34  89 W21G31    29.76R WCI  26
JOPLIN         CLOUDY    34  29  82 NW23G33   29.87R WCI  22
WEST PLAINS    LGT RAIN  45  42  89 W10       29.69F FOG
ROLLA          LGT RAIN  41  38  89 NW10      29.64F FOG
OSAGE BEACH    CLOUDY    43  37  81 W9        29.68F
BRANSON        CLOUDY    41  37  87 W13G26    29.77R

......SURROUNDING SGF CWA......

CITY           SKY/WX    TMP DP  RH WIND       PRES   REMARKS
CHANUTE        CLOUDY    29  22  75 NW24G35   29.95R WCI  15
PARSONS        CLOUDY    30  22  72 NW24G37   29.97R WCI  16
COFFEYVILLE    CLOUDY    30  22  72 NW26G38   29.98R WCI  16
EMPORIA        MIX PCPN  21  16  81 NW29G38   29.99R WCI   3
GROVE OK       CLOUDY    36  34  93 NW17G26   29.93R WCI  25
ROGERS AR      CLOUDY    34  33  96 W20       29.85R WCI  23
SILOAM SPRINGS CLOUDY    36  27  69 NW21G31   29.90R WCI  24
HARRISON AR    CLOUDY    41  39  93 W13G26    29.76R
NEAR YELLVILLE CLOUDY    46  39  76 W17G23    29.73F

......KANSAS AND MISSOURI......

CITY           SKY/WX    TMP DP  RH WIND       PRES   REMARKS
KANSAS CTY INT LGT SNOW  25  22  88 NW21G35   29.85R FOG     WCI  11
DOWNTOWN KC    FLURRIES  29  23  78 NW22G33   29.85R WCI  15
COLUMBIA       LGT RAIN  36  36 100 NW13      29.68S FOG     WCI  27
SEDALIA        FLURRIES  35  33  92 NW17      29.73S WCI  25
ST JOSEPH      LGT SNOW  24  20  84 NW26G35   29.91R VSB 1   WCI   8
ST LOUIS       CLOUDY    41  38  89 W8        29.65F FOG
SPIRIT OF STL  CLOUDY    40  38  93 W7        29.64F
KIRKSVILLE     LGT SNOW  34  33  96 N9        29.70S FOG     WCI  27
WICHITA        CLOUDY    25  14  63 N28G36    30.09R WCI   9
TOPEKA         LGT SNOW  24  18  77 NW26G36   29.98R WCI   8
OLATHE         MIX PCPN  28  23  81 NW22G33   29.84R WCI  14

......TENNESSEE......

CITY           SKY/WX    TMP DP  RH WIND       PRES   REMARKS
MEMPHIS        CLOUDY    58  54  86 SW20G32   29.72F
NASHVILLE      LGT RAIN  50  47  89 S14       29.77F

......ARKANSAS.......

CITY           SKY/WX    TMP DP  RH WIND       PRES   REMARKS
FAYETTEVILLE   CLOUDY    36  34  92 W21G26    29.87R WCI  25
FT SMITH       CLOUDY    42  34  73 W24G32    29.91R
LITTLE ROCK    LGT RAIN  55  51  86 W6        29.77F

......OKLAHOMA.......

CITY           SKY/WX    TMP DP  RH WIND       PRES   REMARKS
TULSA          CLOUDY    37  27  67 NW26G37   29.99R WCI  25
PONCA CITY     CLOUDY    30  20  66 NW21G37   30.08R WCI  17
MCALESTER      PTSUNNY   42  31  64 NW18G25   30.00R
OKLAHOMA CITY  PTSUNNY   39  25  57 N29G38    30.06S WCI  27

......IOWA............

CITY           SKY/WX    TMP DP  RH WIND       PRES   REMARKS
DES MOINES     SNOW      21  16  81 NE22G30   29.91R VSB 1/2 WCI   5
QUAD CITIES    LGT SNOW  25  21  85 NE15G30   29.77F VSB 3/4 WCI  13

......ILLINOIS........

CITY           SKY/WX    TMP DP  RH WIND       PRES   REMARKS
QUINCY         LGT SNOW  34  31  88 N6        29.65F FOG     WCI  29
CHICAGO        HVY SNOW  25  24  96 NE24G31   29.76F VSB 1/4 WCI   9




USA.gov is the U.S. government's official web portal to all federal, state and local government web resources and services.